Weather History for Krabi, Thailand

Change the Weather History Date:

Saturday, August 23, 2014

  Actual Average (VTSP) Record (VTSP)
Temperature  
Mean Temperature 84 °F -  
Max Temperature 93 °F 87 °F 95 °F (2002)
Min Temperature 73 °F 77 °F 74 °F (2012)
Cooling Degree Days 19    
Growing Degree Days 34 (Base 50)    
Moisture  
Dew Point 75 °F    
Average Humidity 89    
Maximum Humidity 100    
Minimum Humidity 52    
Precipitation  
Precipitation 0.00 in - - ()
Sea Level Pressure  
Sea Level Pressure 29.84 in    
Wind  
Wind Speed 2 mph ()    
Max Wind Speed 14 mph    
Max Gust Speed -    
Visibility 4.3 miles    
Events Rain , Thunderstorm    
Averages and records for this station are not official NWS values.
T = Trace of Precipitation, MM = Missing Value Source: Averaged Metar Reports

Daily Weather History Graph

Daily Weather History Graph

Search for Another Location

Airport:

Trip Planner

Search our weather history database for the weather conditions in past years. The results will help you decide how hot, cold, wet, or windy it might be!

Date:

Astronomy

Aug. 23, 2014 Rise Set
Actual Time 6:16 AM ICT 6:36 PM ICT
Civil Twilight 5:55 AM ICT 6:58 PM ICT
Nautical Twilight 5:30 AM ICT 7:22 PM ICT
Astronomical Twilight 5:05 AM ICT 7:47 PM ICT
Moon 4:16 AM ICT (8/23) 4:55 PM ICT (8/23)
Length of Visible Light 13h 02m
Length of Day
12h 19m
Waning Crescent, 5% of the Moon is Illuminated
Aug 23
Waning Crescent
Aug 25
New
Sep 2
First Quarter
Sep 9
Full
Sep 16
Last Quarter

Hourly Weather History & Observations

Time (ICT) Temp. Heat Index Dew Point Humidity Pressure Visibility Wind Dir Wind Speed Gust Speed Precip Events Conditions
12:00 AM 77.0 °F - 75.2 °F 94% 29.86 in 2.5 mi Calm Calm - N/A   Mist
1:00 AM 75.2 °F - 73.4 °F 94% 29.86 in 2.5 mi Calm Calm - N/A   Mist
3:00 AM 75.2 °F - 73.4 °F 94% 29.83 in 2.5 mi Calm Calm - N/A   Mist
4:00 AM 75.2 °F - 73.4 °F 94% 29.80 in 3.1 mi Variable 2.3 mph - N/A   Mist
6:00 AM 75.2 °F - 73.4 °F 94% 29.83 in 2.5 mi Calm Calm - N/A   Mist
7:00 AM 75.2 °F - 73.4 °F 94% 29.83 in 1.9 mi ENE 3.5 mph - N/A   Mostly Cloudy
8:00 AM 77.0 °F - 77.0 °F 100% 29.86 in 3.7 mi NE 3.5 mph - N/A   Scattered Clouds
9:00 AM 82.4 °F 92.4 °F 78.8 °F 89% 29.89 in 4.3 mi NNE 4.6 mph - N/A   Scattered Clouds
10:00 AM 86.0 °F 96.9 °F 77.0 °F 74% 29.89 in 5.6 mi Variable 2.3 mph - N/A   Partly Cloudy
11:00 AM 87.8 °F 99.7 °F 77.0 °F 70% 29.89 in 6.2 mi Variable 3.5 mph - N/A   Scattered Clouds
12:00 PM 87.8 °F 99.7 °F 77.0 °F 70% 29.86 in 6.2 mi Variable 2.3 mph - N/A   Mostly Cloudy
2:00 PM 93.2 °F 102.4 °F 73.4 °F 52% 29.80 in 6.2 mi WSW 4.6 mph - N/A   Mostly Cloudy
3:00 PM 80.6 °F 87.1 °F 77.0 °F 89% 29.77 in 1.9 mi South 13.8 mph - N/A Rain , Thunderstorm Heavy Thunderstorms and Rain
4:00 PM 75.2 °F - 73.4 °F 94% 29.78 in 4.3 mi NW 10.4 mph - N/A Rain Rain
5:00 PM 75.2 °F - 73.4 °F 94% 29.77 in 5.6 mi ESE 3.5 mph - N/A Thunderstorm Thunderstorm
6:00 PM 75.2 °F - 73.4 °F 94% 29.80 in 5.6 mi Variable 2.3 mph - N/A   Scattered Clouds
7:00 PM 75.2 °F - 73.4 °F 94% 29.80 in 5.6 mi Calm Calm - N/A   Mostly Cloudy
8:00 PM 75.2 °F - 73.4 °F 94% 29.83 in 5.6 mi SSE 4.6 mph - N/A   Mostly Cloudy
9:00 PM 75.2 °F - 73.4 °F 94% 29.89 in 5.6 mi NNE 3.5 mph - N/A   Mostly Cloudy
10:00 PM 75.2 °F - 73.4 °F 94% 29.89 in 5.0 mi Variable 2.3 mph - N/A   Mostly Cloudy
11:00 PM 73.4 °F - 73.4 °F 100% 29.89 in 3.7 mi Variable 2.3 mph - N/A   Scattered Clouds